[[{"header":{"parameterUnit":"m.s-1","parameterCategory":1,"la1":30.2992,"la2":30.254,"lo1":-89.0895,"lo2":-89.0443,"dy":0.0025,"dx":0.0025,"nx":19,"ny":19,"refTime":"2026-05-22T03:00:00:Z","depth":0,"parameterNumber":2,"parameterNumberName":"U-component_of_WINDS"},"data":[0,0,0,0.0192,0.0192,0.0189,0.0189,0.0184,0.0184,0,0,0,0,0,0,0,0,0,0,0,0.0193,0.0193,0.0193,0.0192,0.0189,0.0189,0.0184,0.0184,0,0,0,0,0,0,0,0,0,0,0,0.0193,0.0193,0.0193,0.0192,0.0189,0.0189,0.0184,0.0187,0,0,0,0,0,0,0,0,0,0,0.019,0.0189,0.0193,0.0193,0.0192,0.0189,0.0189,0.0187,0.0186,0.0184,0,0.0183,0,0.0183,0.0183,0.0183,0,0,0,0.0193,0.019,0.0189,0.0193,0.0192,0.0189,0.0191,0.0187,0.0186,0.0184,0.0183,0.0182,0.0183,0.0183,0.0183,0.0169,0.0169,0,0,0.0193,0.0192,0.019,0.0189,0.019,0.0191,0.0191,0.0186,0.0185,0.0183,0.0182,0.0183,0.0183,0.0183,0.0169,0.0169,0,0,0,0.0193,0.0192,0.0192,0.0189,0.0189,0.0191,0.0191,0.0185,0.0185,0.0182,0.0183,0.0183,0.0183,0.017,0.0169,0.0163,0,0,0,0.0193,0.0192,0.0192,0.0191,0.0189,0.0187,0.0189,0.0185,0.0185,0.0183,0.0183,0.0183,0.017,0.0169,0.0164,0.016,0,0,0,0.0193,0.0192,0.0191,0.0191,0.019,0.0187,0.0187,0.0185,0.0185,0.0183,0.0183,0.017,0.017,0.0164,0.0161,0.0156,0,0,0,0.0192,0.0187,0.0191,0.0185,0.019,0.0184,0.0187,0.0183,0.018,0.0183,0.017,0.0169,0.0164,0.0161,0.0156,0.015,0.0148,0,0,0.0184,0.0185,0.0182,0.0186,0.0178,0.0184,0.0176,0.0175,0.0176,0.0171,0.0171,0.0163,0.0161,0.0156,0.0137,0.0135,0,0,0,0.0178,0.0176,0.0174,0.0171,0.017,0.0169,0.0169,0.0169,0.0165,0.0174,0.0161,0.0159,0.0156,0.0153,0.0152,0.0149,0.0168,0.0168,0.0168,0.0165,0.0166,0.0159,0.016,0.0157,0.0157,0.0155,0.0154,0.0157,0.0153,0.0152,0.014,0.0137,0.0136,0.0133,0.015,0.015,0.015,0.015,0.0152,0.0148,0.015,0.0145,0.0146,0.0141,0.014,0.0142,0.0137,0.0142,0.0139,0.0144,0.0134,0.0131,0.0149,0.0149,0.0149,0.0149,0.0149,0.0143,0.0141,0.014,0.0135,0.0132,0.0132,0.0127,0.0129,0.013,0.0127,0.0125,0.0125,0.0124,0.0126,0.0126,0.0126,0.0126,0.0126,0.0126,0.0133,0.0133,0.0128,0.0126,0.0123,0.012,0.0119,0.0117,0.0115,0.0116,0.0116,0.0118,0.0133,0.0137,0.0125,0.0125,0.0125,0.0126,0.0126,0.0119,0.0122,0.0115,0.0113,0.0109,0.0104,0.0106,0.0101,0.0099,0.0096,0.0098,0.011,0.0111,0.0113,0.0115,0.0099,0.0099,0.0099,0.0099,0.0111,0.0111,0.0104,0.01,0.0096,0.0096,0.0087,0.0085,0.0084,0.0083,0.0086,0.009,0.0091,0.0091,0.0093,0.0096,0.0075,0.0075,0.0075,0.0101,0.0102,0.0094,0.0093,0.009,0.0086,0.0078,0.0072,0.0072,0.0074,0.0082,0.0083,0.0089,0.0091,0.0093,0.0096,0.0101,0,0]},{"header":{"parameterUnit":"m.s-1","parameterCategory":1,"la1":30.2992,"la2":30.254,"lo1":-89.0895,"lo2":-89.0443,"dy":0.0025,"dx":0.0025,"nx":19,"ny":19,"refTime":"2026-05-22T03:00:00:Z","depth":0,"parameterNumber":3,"parameterNumberName":"V-component_of_WINDS"},"data":[0,0,0,5.3049,5.305,5.3072,5.3072,5.3106,5.3106,0,0,0,0,0,0,0,0,0,0,0,5.3046,5.3046,5.3049,5.305,5.3072,5.3072,5.3106,5.3106,0,0,0,0,0,0,0,0,0,0,0,5.3046,5.3046,5.3047,5.305,5.3072,5.3072,5.3106,5.3087,0,0,0,0,0,0,0,0,0,0,5.3064,5.3065,5.3046,5.3047,5.305,5.3072,5.3072,5.3086,5.3088,5.3098,0,5.3109,0,5.3108,5.3109,5.3109,0,0,0,5.3047,5.3063,5.3066,5.3047,5.305,5.3072,5.3061,5.3087,5.309,5.3101,5.3109,5.311,5.3109,5.3109,5.3109,5.3181,5.3182,0,0,5.3045,5.3051,5.3065,5.3068,5.3066,5.306,5.3062,5.3088,5.3097,5.3109,5.3111,5.3109,5.3109,5.311,5.3181,5.3181,0,0,0,5.3044,5.3051,5.3053,5.3067,5.3071,5.3061,5.3063,5.3096,5.3096,5.3111,5.311,5.311,5.311,5.318,5.3181,5.3211,0,0,0,5.3043,5.305,5.3053,5.3057,5.307,5.3084,5.307,5.3094,5.3097,5.311,5.311,5.3111,5.318,5.3181,5.3209,5.3223,0,0,0,5.3043,5.305,5.3055,5.3057,5.3067,5.3083,5.3085,5.3095,5.3097,5.3109,5.3111,5.3179,5.318,5.3207,5.322,5.3244,0,0,0,5.3045,5.3079,5.3055,5.3093,5.3067,5.3102,5.3085,5.311,5.3124,5.311,5.318,5.3181,5.3206,5.3218,5.3242,5.3265,5.3275,0,0,5.3091,5.3085,5.3107,5.3086,5.3128,5.3098,5.3144,5.315,5.3145,5.3169,5.3171,5.3209,5.322,5.3244,5.3332,5.334,0,0,0,5.3124,5.314,5.3149,5.3165,5.3172,5.318,5.3179,5.3182,5.3203,5.3159,5.3225,5.3231,5.3245,5.3255,5.3262,5.3273,5.3186,5.3186,5.3186,5.3196,5.3191,5.3227,5.3225,5.324,5.3241,5.3252,5.3257,5.3244,5.326,5.3266,5.3321,5.3333,5.3338,5.3351,5.3279,5.3279,5.3279,5.3279,5.3263,5.3285,5.3272,5.3302,5.3296,5.3321,5.3325,5.3316,5.3338,5.3315,5.3326,5.33,5.3348,5.3358,5.3281,5.3281,5.3281,5.328,5.328,5.3309,5.3318,5.3323,5.3347,5.3366,5.3362,5.3386,5.3379,5.3372,5.3384,5.3391,5.339,5.3388,5.3388,5.3389,5.3389,5.3389,5.3389,5.3389,5.3353,5.3358,5.3379,5.3393,5.3404,5.3417,5.3421,5.343,5.3439,5.3432,5.3432,5.3419,5.3354,5.3337,5.3392,5.3392,5.3391,5.3391,5.3391,5.342,5.3405,5.3438,5.3449,5.3466,5.3486,5.3479,5.35,5.3507,5.3519,5.3505,5.3458,5.345,5.3444,5.343,5.3506,5.3506,5.3506,5.3506,5.3458,5.3455,5.3488,5.3506,5.3523,5.3522,5.3559,5.3564,5.3566,5.357,5.3559,5.354,5.3535,5.353,5.3523,5.3509,5.3603,5.3603,5.3603,5.3499,5.3498,5.3531,5.3535,5.3549,5.3562,5.3597,5.3618,5.3617,5.3607,5.3573,5.3569,5.3539,5.353,5.3517,5.3506,5.3481,0,0]}]]